Regional Weather Roundup
Issued by NWS Wilmington, NC

Home | Current Version | Previous Version | Text Only | Print | Product List | Glossary On
Versions: 1 2 3 4 5 6 7 8 9 10 11 12 13 14 15 16 17 18 19 20 21 22 23 24 25 26 27 28 29 30 31 32 33 34 35 36 37 38 39 40 41 42 43 44 45 46 47 48 49 50
000
ASUS42 KILM 170110
RWRILM
RWRILM
REGIONAL HOURLY WEATHER ROUNDUP
NATIONAL WEATHER SERVICE WILMINGTON NC
900 PM EDT TUE SEP 16 2014

NOTE: "FAIR" INDICATES FEW OR NO CLOUDS BELOW 12,000 FEET WITH NO
SIGNIFICANT WEATHER AND/OR OBSTRUCTIONS TO VISIBILITY.

...............WFO WILMINGTON COUNTY WARNING AREA...............

......COASTAL NC AND SC COUNTIES......

CITY           SKY/WX    TMP DP  RH WIND       PRES   REMARKS
WILMINGTON     CLEAR     74  71  91 S3        29.96R
SOUTHPORT      PTCLDY    76  71  83 CALM      29.97R
N MYRTLE BEACH PTCLDY    79  71  76 S6        29.96R
MYRTLE BEACH   PTCLDY    77  73  88 W6        29.97R

......INLAND NC AND SC COUNTIES.......

CITY           SKY/WX    TMP DP  RH WIND       PRES   REMARKS
LUMBERTON      PTCLDY    72  69  90 CALM      29.95R
ELIZABETHTOWN  CLEAR     73  71  93 SE3       29.96R
WHITEVILLE     CLEAR     76  72  86 S3        29.96R
FLORENCE       PTCLDY    76  71  85 SW8       29.97R
DARLINGTON     PTCLDY    75  68  78 S6        29.96S

....................REST OF NORTH CAROLINA......................

.........EASTERN NC.........

CITY           SKY/WX    TMP DP  RH WIND       PRES   REMARKS
CAPE HATTERAS  CLOUDY    76  69  79 S10       29.96R
JACKSONVILLE   PTCLDY    72  66  83 CALM      29.96R
MOREHEAD CITY  CLOUDY    78  72  81 SW3       29.96R
KENANSVILLE    PTCLDY    71  69  95 CALM      29.96R
NEW BERN       CLEAR     74  69  85 CALM      29.96R
ELIZABETH CITY CLEAR     70  64  81 E7        29.97R

.........CENTRAL NC.........

CITY           SKY/WX    TMP DP  RH WIND       PRES   REMARKS
RALEIGH DURHAM LGT RAIN  71  66  84 NE3       29.98R
ROCKY MOUNT    PTCLDY    69  66  90 CALM      29.96R
ROANOKE RAPIDS NOT AVBL
FAYETTEVILLE   PTCLDY    77  68  73 SE5       29.94R
HOFFMAN        MOCLDY    77  64  65 VRB1      29.97R

.........WESTERN NC.........

CITY           SKY/WX    TMP DP  RH WIND       PRES   REMARKS
CHARLOTTE      TSTM      70  66  88 SE8       29.99R FOG
GREENSBORO     CLOUDY    69  68  96 NE6       29.99S
HICKORY        NOT AVBL
BOONE          NOT AVBL
ASHEVILLE      NOT AVBL

.....................REST OF SOUTH CAROLINA.....................

.........EASTERN SC.........

CITY           SKY/WX    TMP DP  RH WIND       PRES   REMARKS
CHARLESTON     HVY RAIN  74  71  91 VRB7      29.97F FOG
BEAUFORT MCAS  RAIN      76  74  93 W7        29.98R
HILTON HEAD    NOT AVBL

.........CENTRAL SC.........

CITY           SKY/WX    TMP DP  RH WIND       PRES   REMARKS
COLUMBIA       PTCLDY    80  70  71 SE5       29.95R
ORANGEBURG     MOCLDY    74  69  85 SE10G20   29.98R
SUMTER SHAW    PTCLDY    76  69  80 S9        29.96R

.........WESTERN SC.........

CITY           SKY/WX    TMP DP  RH WIND       PRES   REMARKS
GREENVILLE     NOT AVBL
ROCK HILL      CLOUDY    76  69  79 CALM      29.97R
ANDERSON       CLEAR     75  68  78 CALM      29.97R
CLEMSON        NOT AVBL
GREENWOOD      PTCLDY    74  61  63 CALM      29.97F


...................COASTAL AND OFFSHORE REPORTS..................

................LOCAL PIERS AND NC RESERVE................


STATION/POSITION TIME  SKY/WX   TEMP    WIND        PRES    VSBY
                                AIR SEA DIR/SP/G
                 (UTC)          (F)     (DEG/KT/KT) (MB)    (MI)
JOHNY MRCER PIER 0100            79 83  170/ 10/ 11 1014.0S
NC RESRV MASNBRO 0000            77     150/  2     1014.0S
OCEAN CREST PIER 0100            79 81  110/ 10/ 11 1013.8R
SPRINGMAID  PIER 0100            79 82  200/ 10/ 11 1014.7R


................COASTAL AND OFFSHORE BUOYS................


STATION/POSITION TIME  SKY/WX   TEMP    WIND        PRES    VSBY
                                AIR SEA DIR/SP/G
                 (UTC)          (F)     (DEG/KT/KT) (MB)    (MI)
DIMNDSHOAL 41025 0100            76     290/  2/  4 1014.5F
WVE H/P(F/S)=  2/ 8 SWL H/P/D(F/S/D)=  2/ 40/ 8

CAPE LOOKOUT     0000            78     190/  5/  6 1014.2S
ONSLOW BAY 41036 0100            79 82  170/  8/ 10 1015.0R
WVE H/P(F/S)=  2/13 SWL H/P/D(F/S/D)=  2/110/13

5 WRITEBCH 41038 0000            76 82  170/  6/  6   N/A
MASONBORO  41110 0100               82                N/A
WVE H/P(F/S)=  2/13 WND WVE H/P(F/S)=  2/ 7

WILM HARBR 41108 0100               82                N/A
WVE H/P(F/S)=  2/12 WND WVE H/P(F/S)=  2/ 7 SWL H/P/D(F/S/D)=  2/140/12

27WRITEBCH 41037 0000            76 82  130/  6/  8 1014.1R
FRYING PAN 41013 NOT AVBL
SUNST NRSH 41024 NOT AVBL
CAPRS NRSH 41029 0000            76     310/  4/  4   N/A
EDISTO     41004 0100            79 83  360/  6/  8 1014.6R
WVE H/P(F/S)=  2/13 WND WVE H/P(F/S)=  2/ 3 SWL H/P/D(F/S/D)=  2/13



..........OFFSHORE BUOYS BEYOND 100 NM OFFSHORE...........
.....IN A TRIANGLE---HAT TO BERMUDA TO BAHAMAS TO HAT.....


STATION/POSITION TIME  SKY/WX   TEMP    WIND        PRES    VSBY
                                AIR SEA DIR/SP/G
                 (UTC)          (F)     (DEG/KT/KT) (MB)    (MI)
150E HAT   41001 NOT AVBL
W BERMUDA  41048 NOT AVBL
ATLANTIC S 41049 NOT AVBL
E BAHAMAS  41046 0035            83 85  110/  6/ 10 1015.9R
WVE H/P(F/S)=  7/12 WND WVE H/P(F/S)=  2/ 3 SWL H/P/D(F/S/D)=  7/ 70/12

NE BAHAMAS 41047 NOT AVBL
120E CANVRL41010 0100            81 85  280/  2/  4 1015.5R
WVE H/P(F/S)=  3/ 7 WND WVE H/P(F/S)=  2/ 3 SWL H/P/D(F/S/D)=  2/ 80/ 7


END


USA.gov is the U.S. government's official web portal to all federal, state and local government web resources and services.